EW1697 Weather Reports


time (UTC)temp
C
wind
direction
speed
KPH
gust
KPH
rain 1hr
cm
rain 24hr
cm
rain mn
cm
humidity
%
barometer
mb
20260506201559 24 163 1.6 8.0 0.00 0.00 0.00 50 1018.4
20260506200057 24 58 0.0 6.4 0.00 0.00 0.00 50 1018.5
20260506194555 24 334 1.6 4.8 0.00 0.00 0.00 50 1018.7
20260506193056 23 322 0.0 8.0 0.00 0.00 0.00 53 1018.7
20260506191558 23 319 0.0 9.7 0.00 0.00 0.00 52 1019.0
20260506190051 23 134 0.0 6.4 0.00 0.00 0.00 51 1019.2
20260506184548 23 318 0.0 8.0 0.00 0.00 0.00 52 1019.3
20260506183046 22 314 0.0 1.6 0.00 0.00 0.00 54 1019.4
20260506181557 22 309 1.6 8.0 0.00 0.00 0.00 54 1019.4
20260506180041 21 297 0.0 4.8 0.00 0.00 0.00 56 1019.3
20260506174536 20 335 0.0 4.8 0.00 0.00 0.00 58 1019.4
20260506173055 21 170 0.0 4.8 0.00 0.00 0.00 58 1019.4
20260506171628 20 246 0.0 3.2 0.00 0.00 0.00 62 1019.6
20260506170026 18 300 0.0 6.4 0.00 0.00 0.00 65 1019.8
20260506164520 17 342 0.0 4.8 0.00 0.00 0.00 67 1019.9
20260506163024 17 344 0.0 6.4 0.00 0.00 0.00 68 1019.9
20260506161517 17 353 0.0 3.2 0.00 0.00 0.00 69 1020.1
20260506160014 16 10 0.0 4.8 0.00 0.00 0.00 72 1020.1
20260506154510 16 320 0.0 3.2 0.00 0.00 0.00 73 1020.3
20260506153006 15 20 0.0 1.6 0.00 0.00 0.00 76 1020.4
20260506151507 14 25 0.0 1.6 0.00 0.00 0.00 77 1020.5
20260506150100 13 79 0.0 3.2 0.00 0.00 0.00 78 1020.5
20260506144604 12 28 0.0 4.8 0.00 0.00 0.00 80 1020.5
20260506143053 12 56 0.0 1.6 0.00 0.00 0.00 82 1020.6
20260506141548 11 85 0.0 1.6 0.00 0.00 0.00 86 1020.5
20260506140045 10 85 0.0 1.6 0.00 0.00 0.00 90 1020.3
20260506134543 8 109 0.0 1.6 0.00 0.00 0.00 91 1020.2
20260506133055 8 206 0.0 0.0 0.00 0.00 0.00 90 1020.0
20260506131538 8 177 0.0 0.0 0.00 0.00 0.00 90 1019.9
20260506130039 8 177 0.0 0.0 0.00 0.00 0.00 89 1019.8
20260506124534 9 177 0.0 0.0 0.00 0.00 0.00 89 1019.5
20260506123033 10 177 0.0 0.0 0.00 0.00 0.00 89 1019.6
20260506121531 10 177 0.0 1.6 0.00 0.00 0.00 89 1019.5
20260506120032 10 353 0.0 0.0 0.00 0.00 0.00 89 1019.4
20260506114529 10 27 0.0 4.8 0.00 0.00 0.00 91 1019.3
20260506113128 8 63 0.0 1.6 0.00 0.00 0.00 90 1019.2
20260506111526 9 340 0.0 4.8 0.00 0.00 0.00 91 1019.1
20260506110026 8 158 0.0 0.0 0.00 0.00 0.00 90 1019.0
20260506104551 9 158 0.0 0.0 0.00 0.00 0.00 89 1019.0
20260506103024 9 160 0.0 0.0 0.00 0.00 0.00 89 1018.9
20260506101520 9 200 0.0 0.0 0.00 0.00 0.00 88 1018.8
20260506100021 10 200 0.0 1.6 0.00 0.00 0.00 87 1018.9
20260506094524 10 212 0.0 0.0 0.00 0.00 0.00 88 1019.0
20260506093019 10 212 0.0 1.6 0.00 0.00 0.00 88 1019.1
20260506091518 10 153 0.0 3.2 0.00 0.00 0.00 88 1019.2
20260506090015 10 231 0.0 3.2 0.00 0.00 0.00 88 1019.1
20260506084513 10 85 1.6 8.0 0.00 0.00 0.00 91 1019.0
20260506083018 10 176 0.0 3.2 0.00 0.00 0.00 91 1019.1
20260506081509 8 146 0.0 1.6 0.00 0.00 0.00 92 1019.2
20260506073100 8 149 0.0 1.6 0.00 0.00 0.00 92 1018.8
20260506071620 8 143 0.0 3.2 0.00 0.00 0.00 91 1018.7
20260506061547 8 160 0.0 0.0 0.00 0.00 0.00 90 1018.3
20260506044536 10 163 0.0 0.0 0.00 0.00 0.00 86 1017.7
20260506043031 11 158 0.0 1.6 0.00 0.00 0.00 87 1017.5
20260506041529 10 158 0.0 1.6 0.00 0.00 0.00 86 1017.4
20260506040041 11 158 0.0 0.0 0.00 0.00 0.00 84 1017.2
20260506034526 12 158 0.0 1.6 0.00 0.00 0.00 84 1017.1
20260506033027 12 203 0.0 0.0 0.00 0.00 0.00 82 1016.7
20260506031522 12 203 0.0 0.0 0.00 0.00 0.00 81 1016.3
20260506030022 13 300 0.0 3.2 0.00 0.00 0.00 80 1016.1
20260506024528 13 264 0.0 1.6 0.00 0.00 0.00 79 1015.9
20260506023020 13 330 0.0 4.8 0.00 0.00 0.00 78 1016.0
20260506021538 14 312 0.0 8.0 0.00 0.00 0.00 76 1015.9
20260506020020 15 261 1.6 9.7 0.00 0.00 0.00 73 1015.8
20260506014523 16 309 0.0 6.4 0.00 0.00 0.00 70 1015.7
20260506013018 16 254 0.0 4.8 0.00 0.00 0.00 69 1015.7
20260506011523 15 342 0.0 8.0 0.00 0.00 0.00 71 1015.7
20260506010014 15 284 0.0 8.0 0.00 0.00 0.00 71 1015.7
20260506004512 16 234 1.6 6.4 0.00 0.00 0.00 70 1015.7
20260506003012 16 20 1.6 6.4 0.00 0.00 0.00 68 1015.6
20260506001513 16 194 0.0 3.2 0.00 0.00 0.00 68 1015.6
20260506000008 16 352 0.0 4.8 0.00 0.00 0.00 68 1015.5
20260505234513 16 158 0.0 8.0 0.00 0.00 0.00 69 1015.5
20260505233008 16 34 1.6 6.4 0.00 0.00 0.00 67 1015.6
20260505231508 16 322 0.0 6.4 0.00 0.00 0.00 67 1015.5
20260505230007 16 344 0.0 6.4 0.00 0.00 0.00 67 1015.4
20260505224510 16 304 0.0 4.8 0.00 0.00 0.00 66 1015.6
20260505223007 16 219 0.0 4.8 0.00 0.00 0.00 68 1015.9
20260505221505 15 23 0.0 4.8 0.00 0.00 0.00 69 1015.9
20260505220004 16 350 0.0 6.4 0.00 0.00 0.00 68 1015.9
20260505214502 16 6 1.6 9.7 0.00 0.00 0.00 68 1016.0
20260505213100 16 17 1.6 12.9 0.00 0.00 0.00 66 1016.1
20260505211634 16 19 1.6 9.7 0.00 0.00 0.00 66 1016.1
20260505210057 16 322 3.2 9.7 0.00 0.00 0.00 66 1016.0
20260505204557 16 326 0.0 11.3 0.00 0.00 0.00 65 1016.1
20260505203119 16 334 0.0 3.2 0.00 0.00 0.00 66 1016.2